Location: Unspecified
(29.9680°N, 0.0000°E)
Time: 07:26:34
(UTC+00:00)

A-11 Canister half - Pass Details

Date: 19 June 2019
Orbit: 1526 x 1683 km, 47.3° (Epoch: 21 July)

Event Time Altitude Azimuth Distance (km) Brightness Sun altitude
Rises 01:42:58 0° 174° (S) 4,802 - -31.3°
Reaches altitude 10° 01:48:15 10° 151° (SSE) 3,784 - -30.8°
Exits shadow 01:49:59 12° 141° (SE) 3,580 10.7 -30.6°
Maximum altitude 01:52:35 14° 123° (ESE) 3,450 10.8 -30.3°
Drops below altitude 10° 01:56:53 10° 96° (E) 3,737 11.3 -29.8°
Sets 02:01:57 0° 73° (ENE) 4,700 12.2 -29.3°
